Pascagoula, MS

7:50 PM CST on February 21, 2018 (GMT -0600)
Lott International

Weather History for KPQL - November, 2013

Change the Weather History Date:

Sunday, November 24, 2013

  Actual Average Record
Temperature  
Mean Temperature 47 °F -  
Max Temperature 55 °F 67 °F 80 °F (1958)
Min Temperature 39 °F 48 °F 25 °F (1970)
Degree Days  
Heating Degree Days 18    
Moisture  
Dew Point 28 °F    
Average Humidity 51    
Maximum Humidity 66    
Minimum Humidity 29    
Precipitation  
Precipitation 0.00 in - - ()
Sea Level Pressure  
Sea Level Pressure 30.33 in    
Wind  
Wind Speed 13 mph (NNE)    
Max Wind Speed 20 mph    
Max Gust Speed 30 mph    
Visibility 10 miles    
Events      
Averages and records for this station are not official NWS values.
T = Trace of Precipitation, MM = Missing Value Source: NWS Daily Summary

Daily Weather History Graph

Daily Weather History Graph

Search for Another Location

Airport or City:

Trip Planner

Search our weather history database for the weather conditions in past years. The results will help you decide how hot, cold, wet, or windy it might be!

Date:

Astronomy

Nov. 24, 2013 Rise Set
Actual Time 6:27 AM CST 4:53 PM CST
Civil Twilight 6:01 AM CST 5:19 PM CST
Nautical Twilight 5:32 AM CST 5:49 PM CST
Astronomical Twilight 5:03 AM CST 6:18 PM CST
Moon 11:05 PM CST (11/24) 11:27 AM CST (11/24)
Length of Visible Light 11h 17m
Length of Day
10h 26m
Waning Gibbous, 60% of the Moon is Illuminated
Nov 24
Waning Gibbous
Nov 25
Last Quarter
Dec 2
New
Dec 9
First Quarter
Dec 17
Full

Hourly Weather History & Observations

Time (CST) Temp. Windchill Dew Point Humidity Pressure Visibility Wind Dir Wind Speed Gust Speed Precip Events Conditions
12:53 AM 48.9 °F - 37.9 °F 66% 30.29 in 10.0 mi NNE 15.0 mph 23.0 mph N/A   Overcast
1:53 AM 48.9 °F - 36.0 °F 61% 30.31 in 10.0 mi North 13.8 mph 20.7 mph N/A   Overcast
2:53 AM 46.9 °F - 35.1 °F 63% 30.31 in 10.0 mi North 12.7 mph 23.0 mph N/A   Scattered Clouds
3:53 AM 45.0 °F 38.5 °F 33.1 °F 63% 30.32 in 10.0 mi North 13.8 mph 23.0 mph N/A   Clear
4:53 AM 44.1 °F 37.1 °F 30.0 °F 58% 30.32 in 10.0 mi North 15.0 mph 23.0 mph N/A   Clear
5:53 AM 42.1 °F 34.9 °F 28.9 °F 60% 30.34 in 10.0 mi NNE 13.8 mph 23.0 mph N/A   Clear
6:53 AM 41.0 °F 33.1 °F 28.0 °F 60% 30.36 in 10.0 mi North 15.0 mph - N/A   Clear
7:53 AM 43.0 °F 36.0 °F 27.0 °F 53% 30.36 in 10.0 mi NNE 13.8 mph 19.6 mph N/A   Clear
8:53 AM 45.0 °F 37.6 °F 25.0 °F 46% 30.38 in 10.0 mi NE 17.3 mph 29.9 mph N/A   Clear
9:53 AM 46.9 °F - 23.0 °F 39% 30.37 in 10.0 mi NE 19.6 mph 28.8 mph N/A   Clear
10:53 AM 51.1 °F - 23.0 °F 33% 30.35 in 10.0 mi NNE 18.4 mph 24.2 mph N/A   Clear
11:53 AM 53.1 °F - 23.0 °F 31% 30.32 in 10.0 mi North 16.1 mph - N/A   Clear
12:53 PM 55.0 °F - 24.1 °F 30% 30.30 in 10.0 mi North 11.5 mph - N/A   Clear
1:53 PM 55.9 °F - 24.1 °F 29% 30.29 in 10.0 mi North 13.8 mph 20.7 mph N/A   Clear
2:53 PM 54.0 °F - 25.0 °F 33% 30.29 in 10.0 mi NNE 13.8 mph - N/A   Clear
3:53 PM 53.1 °F - 24.1 °F 32% 30.30 in 10.0 mi NNE 11.5 mph - N/A   Clear
4:53 PM 48.9 °F - 27.0 °F 43% 30.31 in 10.0 mi NNE 8.1 mph - N/A   Clear
5:53 PM 46.0 °F 43.1 °F 28.9 °F 51% 30.33 in 10.0 mi NNE 5.8 mph - N/A   Clear
6:53 PM 42.1 °F 39.2 °F 30.0 °F 62% 30.35 in 10.0 mi North 4.6 mph - N/A   Clear
7:53 PM 43.0 °F 38.8 °F 28.9 °F 58% 30.35 in 10.0 mi NNE 6.9 mph - N/A   Clear
8:53 PM 43.0 °F 38.8 °F 28.0 °F 56% 30.34 in 10.0 mi NNE 6.9 mph - N/A   Clear
9:53 PM 42.1 °F 38.4 °F 28.0 °F 58% 30.35 in 10.0 mi North 5.8 mph - N/A   Clear
10:53 PM 39.9 °F 36.7 °F 28.9 °F 65% 30.35 in 10.0 mi North 4.6 mph - N/A   Clear
11:53 PM 39.9 °F 34.5 °F 28.0 °F 63% 30.32 in 10.0 mi North 8.1 mph - N/A   Clear